Location: Potomac
(46.8816°N, 113.5795°W)
Time: 14:09:43
(UTC+00:00)

UKube-1 - Pass Details

Date: 28 June 2022
Orbit: 608 x 615 km, 98.4° (Epoch: 18 August)

Event Time Altitude Azimuth Distance (km) Brightness Sun altitude
Rises 06:48:55 0° 1° (N) 2,899 ? -19.0°
Reaches altitude 10° 06:51:32 10° 345° (NNW) 1,988 ? -19.1°
Maximum altitude 06:54:42 20° 298° (WNW) 1,420 ? -19.2°
Drops below altitude 10° 06:57:52 10° 250° (WSW) 1,974 ? -19.3°
Enters shadow 06:58:48 - 243° (WSW) 2,273 ? -19.3°
